Regional Weather Roundup
Issued by NWS Austin/San Antonio, TX

Home | Current Version | Previous Version | Text Only | Print | Product List | Glossary On
Versions: 1 2 3 4 5 6 7 8 9 10 11 12 13 14 15 16 17 18 19 20 21 22 23 24 25 26 27 28 29 30 31 32 33 34 35 36 37 38 39 40 41 42 43 44 45 46 47 48 49 50
000
ASUS44 KEWX 201902
RWREWX
SOUTH TEXAS REGIONAL WEATHER ROUNDUP
NATIONAL WEATHER SERVICE AUSTIN/SAN ANTONIO TX
200 PM CDT SAT APR 20 2019

NOTE: "FAIR" INDICATED FEW OR NO CLOUDS BELOW 12,000 FEET WITH NO
SIGNIFICANT WEATHER AND/OR OBSTRUCTIONS TO VISIBILITY.

* - THESE STATIONS ARE NOT NWS OR FAA STATIONS...AND ARE NOT SUBJECT
    TO NWS AND FAA QUALITY CONTROL.

TXZ171-172-183>190-202000-
TEXAS HILL COUNTRY AND EDWARDS PLATEAU

CITY           SKY/WX    TMP DP  RH WIND       PRES   REMARKS
JUNCTION       SUNNY     81  47  30 S10       30.06F
*LLANO         SUNNY     81  46  30 S6        30.09F
BURNET         SUNNY     78  46  32 S12G21    30.09F
*HORSESHOE BAY SUNNY     80  47  31 S7        30.08F
*KERRVILLE     SUNNY     76  48  36 S5        30.09F
*FREDERICKSBRG SUNNY     75  47  36 SW10      30.09F
*ROCKSPRINGS     N/A     77  46  33 S14G21    30.14F
*BOERNE STAGE  SUNNY     73  46  38 S8        30.11F
*CASTROVILLE   SUNNY     79  48  33 S9        30.10F
HONDO          SUNNY     81  54  39 S10G17    30.08F
*UVALDE        SUNNY     79  52  39 SE10      30.08F
DEL RIO        SUNNY     84  51  31 SE17G25   30.01F
LAUGHLIN AFB   MOSUNNY   82  52  35 SE15G21   30.02F
CARRIZO SPRGS  SUNNY     84  50  30 S9        30.03F
*FAITH RANCH   SUNNY     88  48  25 S13       30.03F
$$

TXZ173-191>194-202-209-217>225-228-202000-
CENTRAL AND SOUTH CENTRAL TEXAS

CITY           SKY/WX    TMP DP  RH WIND       PRES   REMARKS
GEORGETOWN     SUNNY     77  45  32 S10G16    30.09F
AUSTIN/BERGSTM MOSUNNY   78  48  34 S15G21    30.08F
AUSTIN/MABRY   SUNNY     79  43  27 VRB6      30.09F
*AUSTIN/EXEC   SUNNY     75  46  35 S9G16     30.10S
*LAGO VISTA    SUNNY     76  44  31 SW5G16    30.09F
SAN MARCOS     SUNNY     79  48  33 S10G18    30.09F
NEW BRAUNFELS  SUNNY     79  49  34 S15       30.07F
RANDOLPH AFB   SUNNY     77  53  42 S9        30.08F
PT SAN ANTONIO SUNNY     79  54  41 S12       30.07F
SAN ANTONIO    MOSUNNY   78  51  38 SW8       30.09F
STINSON FIELD  SUNNY     80  49  33 S13G23    30.07F
*LA GRANGE     SUNNY     76  48  36 S6        30.08F
*GIDDINGS      SUNNY     78  47  34 S6        30.11F
*GONZALES      SUNNY     77  50  38 S7        30.10F
$$

TXZ163>164-176>182-195>201-210>213-226-227-235-202000-
SOUTHEAST TEXAS

CITY           SKY/WX    TMP DP  RH WIND       PRES   REMARKS
COLLEGE STN    SUNNY     73  47  39 SW6       30.10F
*BRYAN         SUNNY     73  47  39 SW6       30.12F
*CALDWELL      SUNNY     73  47  39 SW7       30.11F
*CROCKETT        N/A     70  46  43 CALM      30.13F
*BRENHAM       SUNNY     75  44  32 SW6       30.12F
HUNTSVILLE     SUNNY     74  42  31 SW6       30.09F
CONROE         SUNNY     75  39  27 VRB6      30.10F
HOUSTON BUSH   SUNNY     76  43  30 S5        30.10F
HOUSTON HOBBY  FAIR      76  41  28 W5        30.10F
*HOUSTON SW AP FAIR      74  46  36 SW6       30.12S
PEARLAND       FAIR      74  40  29 CALM      30.11F
HOUSTON HOOKS  FAIR      74  46  36 SW7       30.10F
ELLINGTON FLD  NOT AVBL
SUGAR LAND     FAIR      76  47  35 SW7       30.11F
*HOUSTON EXEC  FAIR      75  46  35 SW8G14    30.12F
*CLEVELAND MUN FAIR      75  44  33 W6        30.11F
*WHARTON       SUNNY     74  35  24 S3        30.12F
*COLUMBUS      FAIR      76  39  26 CALM      30.12F
*EAGLE LAKE    CLEAR     73  43  33 SW3       30.11
$$

TXZ214>216-236>238-202000-
THE UPPER TEXAS COAST

CITY           SKY/WX    TMP DP  RH WIND       PRES   REMARKS
*ORANGE        FAIR      73  43  34 W3        30.10F
PORT ARTHUR    FAIR      75  39  27 VRB7      30.08F
GALVESTON      FAIR      71  41  33 S12       30.12F
ANGLETON       FAIR      75  39  27 W6        30.11F
*BAY CITY      SUNNY     76  41  28 CALM      30.11F
PALACIOS       SUNNY     75  50  41 S9        30.12F
$$

TXZ229>234-239>247-202000-
TEXAS COASTAL BEND AND RIO GRANDE PLAINS

CITY           SKY/WX    TMP DP  RH WIND       PRES   REMARKS
VICTORIA       SUNNY     79  49  34 VRB7      30.10F
*BEEVILLE      SUNNY     83  51  33 SE8       30.09F
ROCKPORT       SUNNY     76  58  53 SE12      30.11S
*PORT ARANSAS  SUNNY     74  59  59 SE13      30.12F
*PORT LAVACA   SUNNY     79  55  43 E7        30.10F
*INGLESIDE     SUNNY     78  54  43 S10       30.10F
CORPUS CHRISTI MOSUNNY   79  58  48 SE15G21   30.09F
CORPUS NAS     SUNNY     82  62  50 S14       30.10F
*ROBSTOWN      NOT AVBL
ALICE          SUNNY     82  55  39 SE10G20   30.07F
KINGSVILLE NAS SUNNY     82  56  40 SE13G22   30.08F
COTULLA        SUNNY     83  49  30 SE13      30.05F
LAREDO         SUNNY     89  49  25 SE14      30.02F
$$

TXZ248>255-202000-
DEEP SOUTH TEXAS

CITY           SKY/WX    TMP DP  RH WIND       PRES   REMARKS
BROWNSVILLE    FAIR      84  60  44 SE17G25   30.08F
PORT ISABEL    FAIR      81  59  47 SE21G29   30.08F
HARLINGEN      SUNNY     83  58  42 SE15G23   30.06F
*HEBBRONVILLE  SUNNY     82  47  29 S9G20     30.08F
MCALLEN        SUNNY     87  54  32 SE15G23   30.06F
*WESLACO       CLEAR     85  57  38 S15G21    30.06
FALFURRIAS     SUNNY     84  49  29 SE8       30.07F
EDINBURG       FAIR      85  54  34 SE13      30.07F
*ZAPATA        FAIR      88  50  26 SE9G20    30.04F
$$

TXZ213>215-236>238-242>244-246-247-251-254-255-202000-
CMAN STATIONS

STATION/POSITION TIME  TEMP    WIND        PRES    WAVE
                       AIR SEA DIR/SP/G            HT/PER
                 (UTC) (F)     (DEG/KT/KT) (MB)    (FT/S)
SABINE PASS      1824   71 71  300/  4/  8 1021.1
SEA RIM ST PARK  1800   69     190/  9/ 11 1019.7
NORTH JETTY/GLS  1824   67 70  170/  7/  9 1019.8
EAGLE POINT      1824   67 70  120/  7/  8 1020.2
MORGANS POINT    1824   70 70  140/  5/  7 1019.7
PORT O`CONNOR    1824   69 71  150/  8/ 10 1019.6
PORT ARANSAS     1800   70 71  130/  9/ 10 1019.9
MALAQUITE BEACH  1830   71 73  120/ 11/ 13 1019.2
BAFFIN BAY       1830   73 76  130/ 12/ 15 1019.8
PORT ISABEL      1830   74 74  130/ 14/ 18 1019.6
$$



USA.gov is the U.S. government's official web portal to all federal, state and local government web resources and services.